Notices

What's New in latest Release from April 7th, 2021:

- Updated Glossary, including Speed of Maximum Gust, and Total Hourly Precipitation

- Updated national and regional climate services offices contacts and prices information

- Addition of station inventory lists for 1981-2010, 1971-2000, and 1961-1990 Normals.

If you haven't already, please take our survey and provide feedback about our website: https://eccc.sondage-survey.ca/f/LanguageSelection.aspx?s=442ca660-fcf1-47c0-95a9-59707d6fd709

Hourly Data Report for January 24, 2003

TORONTO CITY
ONTARIO

43°40'00.000" N
79°24'00.000" W
112.50 m
6158355
71508
XTO

Download Data

Hourly Data (January 2003)
Hourly Data Report for January 24, 2003
TIME
LST
Temp Definition
°C
Dew Point Definition
°C
Rel Hum Definition
%
Precip. Amount Definition
mm

Wind Dir Definition
10's deg

Wind Spd Definition
km/h
Visibility Definition
km
Stn Press Definition
kPa
Hmdx Definition


Wind Chill Definition


Weather Definition


00:00
01:00
02:00 -14.0 -19.4 64     0 LegendMM 101.03     LegendNANA
03:00 -14.2 -19.3 65     0 LegendMM 101.09     LegendNANA
04:00 -14.7 -19.6 66     0 LegendMM 101.10     LegendNANA
05:00 -14.7 -19.0 70     0 LegendMM 101.17     LegendNANA
06:00
07:00 -15.0 -18.5 75     0 LegendMM 101.26     LegendNANA
08:00 -15.4 -18.9 75     0 LegendMM 101.31     LegendNANA
09:00 -14.7 -18.7 72     0 LegendMM 101.39     LegendNANA
10:00 -13.4 -18.1 68     0 LegendMM 101.45     LegendNANA
11:00 -11.5 -17.4 62     0 LegendMM 101.48     LegendNANA
12:00
13:00 -7.7 -14.8 57     0 LegendMM 101.37     LegendNANA
14:00 -7.9 -14.2 61     0 LegendMM 101.27     LegendNANA
15:00 -7.0 -11.3 71     0 LegendMM 101.17     LegendNANA
16:00 -5.4 -10.8 66     0 LegendMM 101.14     LegendNANA
17:00 -5.7 -11.1 66     0 LegendMM 101.14     LegendNANA
18:00 -6.3 -11.5 67     0 LegendMM 101.16     LegendNANA
19:00 -6.7 -11.5 69     0 LegendMM 101.17     LegendNANA
20:00 -6.9 -11.2 71     0 LegendMM 101.15     LegendNANA
21:00 -6.8 -11.4 70     0 LegendMM 101.10     LegendNANA
22:00 -6.7 -11.3 70     0 LegendMM 101.02     LegendNANA
23:00 -6.6 -11.1 70     0 LegendMM 100.98     LegendNANA

Notes on Data Quality.

Legend

  • E = Estimated
  • M = Missing
  • NA = Not Available*
  • [empty] = Indicates an unobserved value
Date modified: